Date String (YYYY-MM-DD hh:mm:ss) UTC,Instrument flags,Ambient pressure (hPa),Sample flow (lpm),Bypass flow (lpm),Sample temperature (°C),Ambient temperature (°C),ASC tube jacket temperature (°C),LED temperature (°C),Box temperature (°C),Sample RH (%),Span deviation,Mass concentration (μg/m³),Mass concentration (μg/m³),Mass concentration (μg/m³)
DateTimeUTC,F1_M11,P_M11,Q1_M11,Q2_M11,T1_M11,T2_M11,T3_M11,T4_M11,T5_M11,U1_M11,ZSPAN_M11,X0_M11,X2_M11,X1_M11
2021-08-20 21:00:00,,0825.2,5.00,0.00,29.4,28.1,00.0,38.4,31.2,16.9,0002.6,0017.23,0012.33,0011.84
2021-08-20 21:01:00,,0825.1,5.00,0.00,29.4,28.3,00.0,38.4,31.3,17.0,0002.6,0017.17,0012.30,0011.85
2021-08-20 21:02:00,,0825.2,5.00,0.00,29.5,28.5,00.0,38.4,31.3,16.5,0002.8,0017.16,0012.30,0011.85
2021-08-20 21:03:00,,0825.2,4.99,0.00,29.5,28.6,00.0,38.5,31.4,16.2,0002.7,0017.18,0012.29,0011.85
2021-08-20 21:04:00,,0825.3,5.00,0.00,29.5,28.7,00.0,38.5,31.4,16.8,0002.6,0017.27,0012.33,0011.86
2021-08-20 21:05:00,,0825.3,5.00,0.00,29.6,28.8,00.0,38.5,31.5,16.9,0002.6,0016.84,0012.35,0011.87
2021-08-20 21:06:00,,0825.4,5.00,0.00,29.6,28.9,00.0,38.5,31.5,16.5,0002.6,0016.59,0012.30,0011.86
2021-08-20 21:07:00,,0825.4,5.01,0.00,29.6,28.1,00.0,38.6,31.3,16.2,0002.6,0016.55,0012.28,0011.86
2021-08-20 21:08:00,,0825.3,5.00,0.00,29.5,26.3,00.0,38.5,30.9,15.9,0002.4,0016.50,0012.28,0011.88
2021-08-20 21:09:00,,0825.3,4.99,0.00,29.4,25.8,00.0,38.5,30.7,16.4,0002.5,0016.32,0012.29,0011.89
2021-08-20 21:10:00,,0825.4,5.00,0.00,29.3,26.2,00.0,38.5,30.8,17.1,0002.4,0016.00,0012.29,0011.89
2021-08-20 21:11:00,,0825.3,5.01,0.00,29.2,26.6,00.0,38.4,30.8,16.9,0002.2,0015.99,0012.27,0011.88
2021-08-20 21:12:00,,0825.4,4.99,0.00,29.3,27.0,00.0,38.4,30.9,17.8,0002.3,0016.16,0012.31,0011.89
2021-08-20 21:13:00,,0825.4,5.00,0.00,29.3,27.4,00.0,38.4,31.0,16.9,0002.2,0016.14,0012.31,0011.89
2021-08-20 21:14:00,,0825.3,5.02,0.00,29.3,27.7,00.0,38.4,31.1,17.3,0002.1,0016.13,0012.28,0011.88
2021-08-20 21:15:00,,0825.2,4.99,0.00,29.3,27.9,00.0,38.4,31.2,16.9,0002.2,0016.40,0012.25,0011.86
2021-08-20 21:16:00,,0825.1,5.01,0.00,29.4,28.1,00.0,38.4,31.2,16.5,0002.2,0016.87,0012.24,0011.85
2021-08-20 21:17:00,,0825.0,4.98,0.00,29.4,28.3,00.0,38.4,31.3,16.7,0002.2,0017.32,0012.27,0011.85
2021-08-20 21:18:00,,0825.2,5.00,0.00,29.5,28.5,00.0,38.5,31.3,16.1,0002.3,0017.69,0012.31,0011.87
2021-08-20 21:19:00,,0825.3,5.01,0.00,29.5,28.6,00.0,38.5,31.4,16.0,0002.5,0017.74,0012.34,0011.88
2021-08-20 21:20:00,,0825.2,5.00,0.00,29.5,28.7,00.0,38.5,31.4,16.1,0002.5,0017.73,0012.35,0011.90
2021-08-20 21:21:00,,0825.2,4.99,0.00,29.6,28.8,00.0,38.5,31.5,15.7,0002.5,0017.75,0012.37,0011.91
2021-08-20 21:22:00,,0825.3,5.00,0.00,29.6,28.7,00.0,38.5,31.5,16.0,0002.7,0017.83,0012.40,0011.93
2021-08-20 21:23:00,,0825.3,5.00,0.00,29.5,27.1,00.0,38.5,31.0,15.8,0002.8,0017.72,0012.37,0011.92
2021-08-20 21:24:00,,0825.1,5.01,0.00,29.4,26.6,00.0,38.5,30.9,16.1,0002.8,0017.79,0012.36,0011.90
2021-08-20 21:25:00,,0825.2,4.99,0.00,29.4,26.9,00.0,38.5,30.9,16.6,0002.8,0017.99,0012.43,0011.92
2021-08-20 21:26:00,,0825.2,5.00,0.00,29.4,27.2,00.0,38.5,31.0,17.2,0002.8,0018.01,0012.51,0011.94
2021-08-20 21:27:00,,0825.1,5.00,0.00,29.4,27.5,00.0,38.5,31.1,17.2,0002.7,0017.58,0012.56,0011.98
2021-08-20 21:28:00,,0825.1,5.00,0.00,29.4,27.8,00.0,38.5,31.2,16.4,0002.6,0017.18,0012.58,0012.00
2021-08-20 21:29:00,,0825.2,4.99,0.00,29.4,28.1,00.0,38.5,31.2,16.2,0002.5,0016.82,0012.57,0012.00
2021-08-20 21:30:00,,0825.3,5.00,0.00,29.5,28.3,00.0,38.5,31.3,16.6,0002.3,0016.88,0012.59,0011.98
2021-08-20 21:31:00,,0825.2,5.01,0.00,29.5,28.4,00.0,38.5,31.4,16.0,0002.2,0016.93,0012.59,0011.98
2021-08-20 21:32:00,,0825.3,5.01,0.00,29.5,28.6,00.0,38.5,31.4,16.3,0002.2,0017.27,0012.61,0011.97
2021-08-20 21:33:00,,0825.2,4.99,0.00,29.6,28.7,00.0,38.6,31.5,16.7,0001.9,0017.65,0012.66,0011.99
2021-08-20 21:34:00,,0825.3,5.01,0.00,29.6,28.3,00.0,38.6,31.4,15.8,0001.9,0017.73,0012.70,0012.00
2021-08-20 21:35:00,,0825.2,5.01,0.00,29.5,26.3,00.0,38.5,30.9,16.5,0001.9,0018.01,0012.73,0012.02
2021-08-20 21:36:00,,0825.3,5.00,0.00,29.3,25.6,00.0,38.5,30.6,16.8,0002.0,0018.41,0012.76,0012.04
2021-08-20 21:37:00,,0825.3,5.00,0.00,29.2,25.9,00.0,38.5,30.7,17.2,0002.1,0018.36,0012.77,0012.08
2021-08-20 21:38:00,,0825.3,4.99,0.00,29.2,26.4,00.0,38.4,30.8,16.6,0002.3,0018.43,0012.78,0012.10
2021-08-20 21:39:00,,0825.3,5.01,0.00,29.2,26.8,00.0,38.4,30.9,16.7,0002.3,0018.47,0012.80,0012.12
2021-08-20 21:40:00,,0825.3,5.01,0.00,29.2,27.2,00.0,38.4,30.9,16.3,0002.3,0018.49,0012.83,0012.14
2021-08-20 21:41:00,,0825.3,4.98,0.00,29.2,27.5,00.0,38.4,31.0,16.9,0002.4,0018.31,0012.80,0012.16
2021-08-20 21:42:00,,0825.3,5.00,0.00,29.3,27.8,00.0,38.4,31.1,17.2,0002.3,0018.27,0012.80,0012.16
2021-08-20 21:43:00,,0825.3,5.00,0.00,29.3,28.0,00.0,38.4,31.1,16.9,0002.2,0017.94,0012.79,0012.19
2021-08-20 21:44:00,,0825.4,5.00,0.00,29.4,28.2,00.0,38.4,31.2,17.0,0002.5,0017.60,0012.80,0012.21
2021-08-20 21:45:00,,0825.3,5.00,0.00,29.4,28.3,00.0,38.4,31.3,17.6,0002.7,0017.57,0012.82,0012.24
2021-08-20 21:46:00,,0825.4,5.00,0.00,29.4,28.5,00.0,38.4,31.3,17.7,0002.7,0017.26,0012.84,0012.27
2021-08-20 21:47:00,,0825.4,5.01,0.00,29.5,28.6,00.0,38.5,31.4,17.0,0002.7,0016.82,0012.85,0012.32
2021-08-20 21:48:00,,0825.3,5.01,0.00,29.5,28.7,00.0,38.5,31.4,16.9,0002.6,0016.76,0012.85,0012.34
2021-08-20 21:49:00,,0825.4,5.00,0.00,29.6,28.8,00.0,38.5,31.5,16.9,0002.5,0016.76,0012.87,0012.34
2021-08-20 21:50:00,,0825.4,4.98,0.00,29.6,28.8,00.0,38.5,31.5,17.2,0002.5,0016.90,0012.94,0012.37
2021-08-20 21:51:00,,0825.4,5.00,0.00,29.6,27.5,00.0,38.5,31.1,16.9,0002.6,0017.26,0013.02,0012.41
2021-08-20 21:52:00,,0825.4,5.00,0.00,29.4,25.8,00.0,38.5,30.6,17.8,0002.6,0017.87,0013.07,0012.47
2021-08-20 21:53:00,,0825.4,5.00,0.00,29.3,25.7,00.0,38.5,30.6,18.4,0002.7,0017.99,0013.16,0012.55
2021-08-20 21:54:00,,0825.4,5.01,0.00,29.2,26.2,00.0,38.4,30.6,17.4,0002.8,0018.38,0013.20,0012.57
2021-08-20 21:55:00,,0825.4,4.99,0.00,29.2,26.6,00.0,38.4,30.8,17.3,0002.7,0018.67,0013.23,0012.60
2021-08-20 21:56:00,,0825.4,5.00,0.00,29.2,27.0,00.0,38.4,30.9,16.8,0002.6,0018.71,0013.26,0012.64
2021-08-20 21:57:00,,0825.4,5.00,0.00,29.2,27.4,00.0,38.4,31.0,16.8,0002.6,0018.85,0013.29,0012.67
2021-08-20 21:58:00,,0825.4,4.99,0.00,29.2,27.7,00.0,38.4,31.0,16.8,0002.6,0019.74,0013.28,0012.68
2021-08-20 21:59:00,,0825.4,5.01,0.00,29.3,27.9,00.0,38.4,31.1,17.1,0002.6,0019.80,0013.32,0012.70
